Location: Newark
(33.2404°N, 35.6778°E)
Time: 01:57:21
(UTC+00:00)

Hubble Space Telescope - Pass Details

Date: 06 February 2020
Orbit: 536 x 540 km, 28.5° (Epoch: 21 February)

Event Time Altitude Azimuth Distance (km) Brightness Sun altitude
Exits shadow 02:49:31 39° 201° (SSW) 798 1.4 -21.3°
Maximum altitude 02:49:55 41° 185° (S) 780 1.5 -21.2°
Drops below altitude 10° 02:53:48 10° 114° (ESE) 1,776 4.5 -20.4°
Sets 02:56:08 0° 107° (ESE) 2,666 5.8 -19.9°
